Location: Mexico
(19.4000°N, 99.1500°W)
Time: 21:23:11
(UTC-06:00)

ISS - Pass Details

Date: 14 November 2019
Orbit: 412 x 421 km, 51.6° (Epoch: 12 November)

Event Time Altitude Azimuth Distance (km) Brightness Sun altitude
Exits shadow 05:47:20 - 343° (NNW) 1,571 -1.2 -13.6°
Reaches altitude 10° 05:47:33 10° 345° (NNW) 1,492 -1.3 -13.5°
Maximum altitude 05:50:33 30° 48° (NE) 776 -2.1 -12.9°
Drops below altitude 10° 05:53:32 10° 112° (ESE) 1,485 0.5 -12.2°
Sets 05:55:46 0° 123° (ESE) 2,345 1.6 -11.7°
